Ft Lauderdale, FL

10:16 PM EDT on April 24, 2017 (GMT -0400)
Fort Lauderdale-Hollywood International

Weather History for KFLL - February, 2013

Change the Weather History Date:

Wednesday, February 20, 2013

  Actual Average Record
Temperature  
Mean Temperature 73 °F 71 °F  
Max Temperature 78 °F 78 °F 87 °F (1956)
Min Temperature 67 °F 64 °F 40 °F (1958)
Degree Days  
Heating Degree Days 0 1  
Month to date heating degree days 19 20  
Since 1 July heating degree days 43 100  
Cooling Degree Days 8 7  
Month to date cooling degree days 117 131  
Year to date cooling degree days 372 301  
Growing Degree Days 22 (Base 50)    
Moisture  
Dew Point 64 °F    
Average Humidity 74    
Maximum Humidity 93    
Minimum Humidity 54    
Precipitation  
Precipitation 0.00 in 0.09 in 1.39 in (1942)
Month to date precipitation 1.91 2.21  
Year to date precipitation 2.89 5.84  
Snow  
Snow 0.00 in - - ()
Month to date snowfall 0.0  
Since 1 July snowfall 0.0  
Snow Depth 0.00 in    
Sea Level Pressure  
Sea Level Pressure 30.07 in    
Wind  
Wind Speed 7 mph (ENE)    
Max Wind Speed 17 mph    
Max Gust Speed 20 mph    
Visibility 10 miles    
Events      
T = Trace of Precipitation, MM = Missing Value Source: NWS Daily Summary

Daily Weather History Graph

Daily Weather History Graph

Search for Another Location

Airport or City:

Trip Planner

Search our weather history database for the weather conditions in past years. The results will help you decide how hot, cold, wet, or windy it might be!

Date:

Astronomy

Feb. 20, 2013 Rise Set
Actual Time 6:51 AM EST 6:17 PM EST
Civil Twilight 6:28 AM EST 6:40 PM EST
Nautical Twilight 6:01 AM EST 7:07 PM EST
Astronomical Twilight 5:34 AM EST 7:34 PM EST
Moon 1:53 PM EST (2/20) 2:53 AM EST (2/20)
Length of Visible Light 12h 11m
Length of Day
11h 25m
Waxing Gibbous, 76% of the Moon is Illuminated
Feb 20
Waxing Gibbous
Feb 25
Full
Mar 4
Last Quarter
Mar 11
New
Mar 19
First Quarter

Hourly Weather History & Observations

Time (EST) Temp. Dew Point Humidity Pressure Visibility Wind Dir Wind Speed Gust Speed Precip Events Conditions
12:53 AM 69.1 °F 64.9 °F 87% 30.10 in 10.0 mi NNW 3.5 mph - N/A   Mostly Cloudy
1:53 AM 66.9 °F 64.9 °F 93% 30.08 in 10.0 mi Calm Calm - N/A   Scattered Clouds
2:53 AM 66.9 °F 64.9 °F 93% 30.07 in 10.0 mi NNW 5.8 mph - N/A   Scattered Clouds
3:53 AM 66.9 °F 64.9 °F 93% 30.06 in 10.0 mi NNW 4.6 mph - N/A   Mostly Cloudy
4:53 AM 68.0 °F 64.0 °F 87% 30.06 in 10.0 mi Calm Calm - N/A   Overcast
5:53 AM 66.9 °F 64.0 °F 90% 30.06 in 10.0 mi NNW 5.8 mph - N/A   Partly Cloudy
6:53 AM 68.0 °F 64.0 °F 87% 30.10 in 10.0 mi North 5.8 mph - N/A   Mostly Cloudy
7:53 AM 69.1 °F 63.0 °F 81% 30.11 in 10.0 mi North 5.8 mph - N/A   Mostly Cloudy
8:53 AM 72.0 °F 63.0 °F 73% 30.11 in 10.0 mi North 9.2 mph - N/A   Scattered Clouds
9:53 AM 75.0 °F 57.9 °F 55% 30.12 in 10.0 mi NE 5.8 mph - N/A   Partly Cloudy
10:53 AM 77.0 °F 59.0 °F 54% 30.11 in 10.0 mi ENE 9.2 mph - N/A   Partly Cloudy
11:53 AM 75.9 °F 63.0 °F 64% 30.09 in 10.0 mi NE 10.4 mph - N/A   Mostly Cloudy
12:53 PM 77.0 °F 63.0 °F 62% 30.08 in 10.0 mi ENE 11.5 mph - N/A   Mostly Cloudy
1:53 PM 77.0 °F 64.0 °F 64% 30.04 in 10.0 mi ENE 11.5 mph - N/A   Scattered Clouds
2:53 PM 75.0 °F 66.0 °F 73% 30.04 in 10.0 mi ESE 15.0 mph - N/A   Mostly Cloudy
3:53 PM 73.9 °F 66.9 °F 79% 30.02 in 10.0 mi ESE 15.0 mph - N/A   Scattered Clouds
4:53 PM 73.9 °F 66.0 °F 76% 30.02 in 10.0 mi East 11.5 mph - N/A   Partly Cloudy
5:53 PM 72.0 °F 64.9 °F 78% 30.03 in 10.0 mi ESE 8.1 mph - N/A   Partly Cloudy
6:53 PM 71.1 °F 64.9 °F 81% 30.06 in 10.0 mi Calm Calm - N/A   Partly Cloudy
7:53 PM 71.1 °F 64.9 °F 81% 30.07 in 7.0 mi SE 3.5 mph - N/A   Scattered Clouds
8:53 PM 71.1 °F 66.0 °F 84% 30.07 in 9.0 mi ESE 3.5 mph - N/A   Mostly Cloudy
9:53 PM 73.0 °F 66.0 °F 79% 30.08 in 10.0 mi ENE 3.5 mph - N/A   Overcast
10:53 PM 73.0 °F 64.9 °F 76% 30.09 in 10.0 mi East 4.6 mph - N/A   Overcast
11:53 PM 72.0 °F 66.9 °F 84% 30.07 in 10.0 mi East 5.8 mph - N/A   Mostly Cloudy